This demonstration page uses our WeatherBlox Daily Observations layout. Learn more.

Left ArrowRight Arrow

Hourly Observations for August 1, 2021

Temp ( °F °C ) Dew Point ( °F °C ) Humidity (%) Winds ( mph kmh ) Pressure ( in mb ) Visibility ( mi km ) Precip ( " mm )
12:59 am 00:59 Mostly Cloudy 76 24.4 70 21.1 82 82 ENE 5 7 29.93 1014 10 16 0.00 0.00
1:59 am 01:59 Mostly Cloudy 76 24.4 70 21.1 82 82 E 5 7 29.91 1013 10 16 0.00 0.00
2:59 am 02:59 Mostly Cloudy 76 24.4 70 21.1 82 82 E 6 9 29.90 1013 10 16 0.00 0.00
3:59 am 03:59 Mostly Cloudy 76 24.4 70 21.1 82 82 E 6 9 29.90 1012 10 16 0.00 0.00
4:59 am 04:59 Mostly Cloudy 76 24.4 70 21.1 82 82 E 5 7 29.89 1012 9 14 0.00 0.00
5:59 am 05:59 Mostly Cloudy 76 24.4 71 21.7 85 85 E 3 6 29.89 1012 9 14 0.00 0.00
6:59 am 06:59 Mostly Cloudy 76 24.4 71 21.7 85 85 E 5 7 29.88 1012 8 13 0.00 0.00
7:59 am 07:59 Cloudy with Light Rain 78 25.6 71 21.7 79 79 ENE 8 13 29.89 1012 7 11 0.00 0.00
8:59 am 08:59 Cloudy with Light Rain 77 25 73 22.8 88 88 E 7 11 29.90 1012 7 11 0.02 0.51
9:38 am 09:38 Cloudy with Light Rain 76 24.4 73 22.8 91 91 E 10 17 29.88 1012 2 3 0.10 2.54
9:44 am 09:44 Cloudy with Light Rain 76 24.4 73 22.8 91 91 E 10 17 29.87 1011 3 5 0.10 2.54
9:56 am 09:56 Cloudy 75 24 72 22 89 89 E 12 19 29.88 1012 7 11 0.10 2.54
9:59 am 09:59 Cloudy 76 24.4 72 22.2 88 88 ENE 12 19 29.89 1012 7 11 0.10 2.54
10:11 am 10:11 Cloudy with Rain 76 24.4 72 22.2 88 88 E 10 17 29.88 1012 2 3 0.06 1.52
10:14 am 10:14 Cloudy with Rain 76 24.4 72 22.2 88 88 E 12 19 29.88 1012 2 3 0.07 1.78
10:19 am 10:19 Cloudy with Thunderstorms 76 24.4 72 22.2 88 88 E 12 19 29.88 1012 2 2 0.09 2.29
10:29 am 10:29 Cloudy with Thunderstorms 76 24.4 72 22.2 88 88 E 13 20 29.87 1011 3 5 0.10 2.54
10:38 am 10:38 Cloudy 76 24.4 72 22.2 88 88 E 13 20 29.87 1011 7 11 0.10 2.54
10:59 am 10:59 Cloudy with Light Rain 76 24.4 72 22.2 88 88 VRB 6 9 29.90 1013 5 8 0.11 2.79
11:11 am 11:11 Cloudy with Heavy Rain 75 23.9 71 21.7 88 88 E 12 19 29.91 1013 2 3 0.10 2.54
11:18 am 11:18 Cloudy with Light Rain 75 23.9 71 21.7 88 88 E 10 17 29.91 1013 2 2 0.13 3.30
11:27 am 11:27 Cloudy with Light Rain 75 23.9 71 21.7 88 88 ESE 7 11 29.92 1013 2 3 0.16 4.06
11:59 am 11:59 Cloudy with Light Rain 75 23.9 71 21.7 88 88 ESE 8 13 29.89 1012 4 6 0.22 5.59
12:02 pm 12:02 Cloudy with Thunderstorms 74 23.3 70 21.1 88 88 ESE 8 13 29.89 1012 4 6 0.01 0.25
12:16 pm 12:16 Cloudy with Rain 74 23.3 70 21.1 88 88 E 7 11 29.88 1012 3 4 0.05 1.27
12:39 pm 12:39 Cloudy with Light Rain 75 23.9 71 21.7 88 88 E 14 22 29.86 1011 4 6 0.11 2.79
12:59 pm 12:59 Cloudy with Mist and Fog 76 24.4 71 21.7 85 85 ENE 15 24 29.85 1011 6 10 0.11 2.79
1:59 pm 13:59 Cloudy with Light Rain 77 25 73 22.8 88 88 S 3 6 29.83 1010 4 6 0.00 0.00
2:59 pm 14:59 Cloudy with Mist and Fog 78 25.6 74 23.3 87 87 undefined N/A 29.83 1010 5 8 0.02 0.51
3:59 pm 15:59 Cloudy 80 26.7 73 22.8 79 79 VRB 5 7 29.81 1010 7 11 0.00 0.00
4:59 pm 16:59 Cloudy 82 27.8 73 22.8 74 74 SSW 6 9 29.81 1009 8 13 0.00 0.00
5:59 pm 17:59 Cloudy 81 27.2 72 22.2 74 74 S 5 7 29.80 1009 8 13 0.00 0.00
6:59 pm 18:59 Mostly Cloudy 82 27.8 72 22.2 72 72 W 9 15 29.81 1010 8 13 0.00 0.00
7:59 pm 19:59 Mostly Cloudy 81 27.2 72 22.2 74 74 W 5 7 29.82 1010 8 13 0.00 0.00
8:59 pm 20:59 Mostly Cloudy 78 25.6 73 22.8 85 85 E 5 7 29.83 1010 8 13 0.00 0.00
9:59 pm 21:59 Cloudy 76 24.4 72 22.2 88 88 Calm 29.87 1012 8 13 0.00 0.00
10:59 pm 22:59 Mostly Cloudy 75 23.9 72 22.2 90 90 Calm 29.85 1011 8 13 0.00 0.00
11:59 pm 23:59 Mostly Cloudy 74 23.3 72 22.2 94 94 Calm 29.87 1012 8 13 0.00 0.00

Powered by AerisWeather